Location: Blue Mountain Vista Observatory
(40.6992°N, 75.9422°W)
Time: 23:16:05
(UTC-04:00)

Daily predictions for brighter satellites

Satellite Brightness Start Highest point End
(mag) Time Altitude Azimuth Time Altitude Azimuth Time Altitude Azimuth
Cosmos 2219 3.6 20:02:58 10° NNW 20:08:34 69° WSW 20:14:08 10° SSE
Cosmos 1602 4.5 20:05:26 10° SSW 20:09:20 62° W 20:13:16 10° N
CZ-4B DEB 3.0 20:07:28 10° SSE 20:10:39 55° ENE 20:13:54 10° N
DELTA 2 R/B (1) 3.6 20:07:49 10° W 20:13:25 81° S 20:18:58 10° E
Meteor 2-21 4.5 20:08:27 10° S 20:14:38 80° E 20:20:49 10° N
Okean 2 3.5 20:16:50 10° N 20:20:57 55° E 20:25:01 10° SSE
Cosmos 1975 4.2 20:18:29 10° SE 20:21:35 21° E 20:24:41 10° NE
Cosmos 968 Rocket 4.2 20:18:04 10° NNW 20:23:07 56° WSW 20:28:05 10° S
Meteor 2-4 Rocket 3.9 20:17:17 10° N 20:23:10 90° E 20:29:06 10° S
NOSS 2-1 (D) 3.6 20:20:07 10° SW 20:23:57 73° NW 20:28:19 10° NNE
Cosmos 1697 Rocket 4.1 20:20:37 10° SE 20:24:07 17° E 20:27:38 10° ENE
Helios 1A 4.0 20:20:14 10° S 20:24:16 49° W 20:28:21 10° NNW
NOSS 2-1 (C) 3.6 20:21:08 10° SW 20:24:59 74° NW 20:29:22 10° NNE
Cosmos 2123 Rocket 4.1 20:19:29 10° N 20:25:33 54° E 20:31:34 10° SSE
Cosmos 2278 3.9 20:20:30 10° S 20:25:57 50° ESE 20:31:26 10° NNE
Meteor 2-15 4.4 20:22:48 10° N 20:28:53 70° E 20:34:54 10° SSE
Lacrosse 5 rocket 2.3 20:27:29 10° NNW 20:30:49 29° NE 20:33:40 12° E
H-2A R/B 3.9 20:29:28 10° E 20:31:25 13° ENE 20:33:22 10° NE
Cosmos 1315 Rocket 4.3 20:28:13 10° SSW 20:32:01 42° WNW 20:35:55 10° N
ERS-1 Rocket 3.9 20:27:57 10° SE 20:32:16 30° ENE 20:36:37 10° N
ALOS 2.2 20:27:59 10° SSE 20:32:39 83° ENE 20:37:21 10° N
Meteor 2-14 Rocket 4.4 20:26:38 10° S 20:32:47 80° E 20:38:56 10° N
Cosmos 1892 Rocket 3.6 20:29:06 10° N 20:33:36 89° W 20:38:05 10° S
Meteor 2-15 Rocket 4.4 20:28:06 10° N 20:34:09 66° E 20:40:10 10° SSE
Cosmos 1626 Rocket 4.4 20:30:45 10° NNE 20:34:44 32° ENE 20:38:28 11° SE
Cosmos 1025 Rocket 4.0 20:30:38 10° NNW 20:34:53 51° W 20:39:04 10° S
Cosmos 1455 Rocket 2.9 20:34:27 10° S 20:38:44 73° E 20:43:05 10° NNE
H-2A R/B 2.7 20:35:05 10° SSE 20:38:56 81° ENE 20:42:53 10° N
Cosmos 2369 3.7 20:33:41 10° S 20:39:13 58° ESE 20:44:48 10° NNE
NOSS 2-1 (E) 4.2 20:37:11 10° SW 20:41:01 55° NW 20:45:28 10° NNE
Cosmos 1461 3.0 20:37:39 10° NNW 20:41:41 55° NE 20:44:43 16° SE
Cosmos 1602 Rocket 4.1 20:38:57 10° N 20:43:10 40° ENE 20:46:53 12° SE
Cosmos 1980 Rocket 3.6 20:45:16 15° ESE 20:46:15 16° E 20:49:29 10° ENE
Cosmos 1939 Rocket 3.7 20:51:41 19° SE 20:54:04 34° ENE 20:57:51 10° N
CZ-2D R/B 4.0 20:51:58 10° S 20:55:44 55° W 20:59:34 10° NNW
Resurs 01 Rocket 4.0 20:52:42 10° SSW 20:56:16 24° W 20:59:52 10° NW
Cosmos 1934 Rocket 4.3 20:50:35 10° SSW 20:56:40 71° W 21:02:55 10° N
Lacrosse 5 3.2 20:52:37 10° NNW 20:56:59 28° NNE 21:00:15 15° E
Hubble Space Telescope 3.2 21:00:31 10° SSW 21:01:31 11° SSW 21:02:31 10° S
Cosmos 2084 4.4 21:00:22 10° NNW 21:04:02 31° NE 21:05:45 23° E
SPOT 5 4.0 21:02:06 21° ESE 21:04:15 29° ENE 21:08:25 10° N
Cosmos 220 Rocket 4.0 21:03:27 10° NNW 21:07:38 60° ENE 21:09:49 26° SE
Cosmos 1346 Rocket 3.9 21:07:03 10° NNW 21:10:48 44° W 21:14:36 10° SSW
Cosmos 2227 Rocket 2.4 21:07:57 10° NNW 21:13:37 73° WSW 21:18:21 15° SSE
USA 186 3.4 21:10:53 10° SSW 21:13:43 32° W 21:16:26 10° NNW
Tiangong 1 1.5 21:12:19 10° W 21:15:22 55° N 21:16:25 34° ENE
OTV 4 1.3 21:13:52 10° W 21:16:37 34° SSW 21:16:45 33° S
Cosmos 1500 3.0 21:18:30 25° S 21:20:31 65° E 21:24:15 10° NNE
Cosmos 1656 3.6 21:14:56 10° SSW 21:20:32 72° ESE 21:26:06 10° NNE
NOSS 3-4 (A) 4.3 21:14:45 10° NW 21:21:38 56° WSW 21:28:01 14° SSE
RESURS DK-1 3.4 21:18:01 10° N 21:21:41 29° ENE 21:22:21 28° ENE
NOSS 3-4 (C) 4.3 21:14:51 10° NW 21:21:45 57° WSW 21:28:06 14° SSE
BREEZE-M TANK 3.3 21:11:41 10° WNW 21:23:08 78° NNE 21:24:54 33° E
Cosmos 2016 Rocket 4.5 21:23:05 28° SE 21:25:24 38° E 21:31:01 10° NNE
Cosmos 2298 Rocket 4.0 21:20:35 10° NNW 21:25:55 70° ENE 21:28:25 32° SE
Cosmos 2082 4.1 21:21:29 10° NNW 21:27:01 60° WSW 21:31:16 17° S
CZ-4 DEB 3.4 21:26:40 29° SSW 21:27:59 53° W 21:31:06 10° NNW
Cosmos 2297 Rocket 2.3 21:23:38 10° NNW 21:29:18 76° WSW 21:32:48 24° SSE
Cosmos 1340 3.6 21:31:57 10° N 21:34:56 33° ENE 21:34:56 33° ENE
Envisat 2.9 21:34:13 28° SSE 21:36:58 88° WSW 21:42:05 10° NNW
Cosmos 2173 Rocket 4.0 21:32:57 16° S 21:38:06 68° E 21:44:24 10° NNE
H-2A R/B 3.7 21:39:13 17° ENE 21:39:13 17° ENE 21:42:19 10° NNE
Milstar 3 Cent rocket 4.3 21:20:30 10° WSW 21:40:20 49° SSW 21:45:56 30° SE
Cosmos 1726 Rocket 4.4 21:42:20 34° ENE 21:42:20 34° ENE 21:45:33 10° NNE
Cosmos 1937 Rocket 3.5 21:37:00 10° NNW 21:42:15 64° ENE 21:43:40 46° SE
Cosmos 1515 4.3 21:39:41 10° NNW 21:43:27 53° W 21:44:57 32° SSW
Terra 3.8 21:44:43 15° NE 21:44:43 15° NE 21:46:54 10° NNE
ASTEX 1 3.5 21:40:56 10° NNE 21:45:50 53° E 21:46:26 50° ESE
Cosmos 2098 Rocket 4.4 21:45:59 37° SE 21:47:49 45° E 21:53:38 10° NNE
Cosmos 2100 Rocket 3.9 21:42:27 11° S 21:48:27 89° E 21:54:44 10° N
OAO 2 Rocket 3.7 21:43:40 10° WSW 21:48:28 44° S 21:48:32 43° S
YAOGAN 6 3.1 21:49:35 48° NE 21:49:35 48° NE 21:52:37 10° N
Cosmos 2061 Rocket 3.9 21:44:13 17° S 21:49:16 82° E 21:55:34 10° N
Cosmos 2150 Rocket 4.0 21:47:36 10° NNW 21:52:45 78° WSW 21:54:22 45° S
Cosmos 1743 2.6 21:53:16 88° NE 21:53:16 88° NE 21:57:10 10° N
Tsikada Rocket 4.5 21:48:37 10° N 21:54:41 42° ENE 21:55:35 40° E
Cosmos 1825 Rocket 3.4 21:50:37 10° N 21:55:04 80° E 21:55:21 75° SE
MetOp-A 4.0 21:55:02 51° SSE 21:56:26 80° ENE 22:01:49 10° N
Cosmos 972 Rocket 4.4 21:50:53 10° NNW 21:56:49 89° W 21:59:19 40° SSE
SPOT 1/Viking Rocket 3.7 21:57:13 51° E 21:57:43 53° ENE 22:02:48 10° N
Cosmos 990 Rocket 3.9 21:52:53 10° NNW 21:58:08 65° ENE 21:58:46 59° ESE
DELTA 2 R/B (1) 3.6 21:54:17 10° W 21:59:44 59° SSW 22:00:24 55° SSE
USA 245 4.5 22:00:23 50° SE 22:01:52 67° ENE 22:08:12 10° N
Cosmos 1953 Rocket 3.6 21:59:33 10° N 22:03:44 70° NE 22:03:44 70° NE
CZ-4B R/B 4.3 22:00:00 10° NNE 22:03:04 34° NE 22:03:04 34° NE
H-2A R/B 2.5 22:06:31 49° SW 22:06:58 52° W 22:11:01 10° NNW
Cosmos 1697 Rocket 3.0 22:01:52 10° SSW 22:07:28 65° WNW 22:13:06 10° NNE
Lacrosse 5 rocket 2.7 22:06:46 10° WNW 22:09:24 27° WSW 22:09:24 27° WSW
SL-16 R/B 4.0 22:15:31 17° NE 22:15:31 17° NE 22:17:02 10° NE
Cosmos 1842 4.5 22:11:08 10° N 22:13:33 35° NNE 22:13:33 35° NNE
NOAA 11 4.0 22:15:11 70° ESE 22:15:33 73° ENE 22:21:02 10° N
Cosmos 1898 Rocket 4.4 22:12:38 10° NNW 22:17:37 43° WSW 22:19:08 34° SW
Cosmos 1758 Rocket 4.0 22:18:45 10° N 22:22:20 59° NNW 22:22:20 59° NNW
Cosmos 1725 Rocket 3.8 22:22:45 69° SE 22:23:22 75° E 22:29:37 10° N
Cosmos 1125 Rocket 4.2 22:18:56 10° N 22:23:14 42° NE 22:23:14 42° NE
Cosmos 1763 Rocket 3.4 22:24:18 83° WNW 22:24:18 83° WNW 22:29:23 10° NNE
Cosmos 1980 Rocket 2.4 22:26:52 32° SW 22:29:33 70° WNW 22:35:16 10° NNE
Meteor 1-15 Rocket 4.2 22:30:17 76° E 22:30:17 76° E 22:36:01 10° NNE
ARGOS 3.0 22:30:52 84° WSW 22:30:53 84° WSW 22:36:19 10° NNW
Lacrosse 5 2.4 22:35:16 10° NW 22:39:26 54° W 22:39:26 54° W
SPOT 5 4.2 22:41:21 31° WSW 22:42:11 33° W 22:46:37 10° NNW
Cosmos 2058 Rocket 4.1 22:44:37 44° NNW 22:44:37 44° NNW 22:48:02 10° N
Cosmos 841 Rocket 3.8 22:45:04 62° WNW 22:45:04 62° WNW 22:50:11 10° NNE
USA 215 3.2 22:44:53 66° ENE 22:45:36 71° NE 22:52:06 10° NW
BREEZE-M DEB (TANK) 4.0 22:36:39 10° SW 22:49:08 81° S 22:49:08 81° S
Cosmos 2233 Rocket 4.1 22:51:57 65° NE 22:51:57 65° NE 22:57:19 10° N
Cosmos 2263 Rocket 3.2 22:54:13 10° N 22:58:15 37° NNE 22:58:15 37° NNE
Cosmos 2322 Rocket 3.3 23:03:22 36° NNE 23:03:22 36° NNE 23:06:35 10° NNE
H-2A R/B 3.2 23:19:52 37° NW 23:19:52 37° NW 23:23:02 10° NNW
BREEZE-M DEB (TANK) 3.8 23:04:57 10° WNW 23:18:46 75° NNW 23:18:46 75° NNW
Terra 3.4 23:23:37 32° NNW 23:23:37 32° NNW 23:26:13 10° NNW
